Regional Weather Roundup
Issued by NWS Jackson, KY

Home | Current Version | Previous Version | Text Only | Print | Product List | Glossary Off
Versions: 1 2 3 4 5 6 7 8 9 10 11 12 13 14 15 16 17 18 19 20 21 22 23 24 25 26 27 28 29 30 31 32 33 34 35 36 37 38 39 40 41 42 43 44 45 46 47 48 49 50

000
ASUS43 KJKL 231610
RWRJKL

EAST KENTUCKY HOURLY WEATHER ROUNDUP
NATIONAL WEATHER SERVICE JACKSON KY
1100 AM EST MON JAN 23 2017

NOTE: "FAIR" INDICATES FEW OR NO CLOUDS BELOW 12,000 FEET WITH
NO SIGNIFICANT WEATHER AND/OR OBSTRUCTIONS TO VISIBILITY.

* THESE REPORTS ARE NOT UNDER NWS QUALITY CONTROL AND MAY NOT
  REPORT WEATHER SUCH AS PRECIPITATION AND FOG.

KYZ079-080-083-085-087-088-110-112-115-119-120-231700
...EASTERN KENTUCKY...

CITY           SKY/WX    TMP DP  RH WIND       PRES   REMARKS
JACKSON        LGT RAIN  50  48  93 VRB6      29.41R
LONDON         LGT RAIN  51  48  89 N14       29.42R FOG
SOMERSET*      CLOUDY    50  48  93 N14       29.48R
WILLIAMSBURG*  CLOUDY    50  50 100 N10G22    29.42R
MIDDLESBORO*   DRIZZLE   54  51  89 N8G16     29.39R
HARLAN APT*    CLOUDY    52  46  82 NW9       29.38R
PIKE CO APT*   RAIN      48  48 100 N7        29.38R
BIG SANDY APT* RAIN      49  49 100 NE6       29.40R
MOREHEAD APT*  LGT RAIN  50  48  93 N13       29.47R
ASHLAND*       CLOUDY    50  48  93 NE6       29.42R
$$

KYZ035-036-041-042-044-050-067-078-099-231700
...CENTRAL KENTUCKY...

CITY           SKY/WX    TMP DP  RH WIND       PRES   REMARKS
MT STERLING*   LGT RAIN  50  48  93 N10G17    29.48R
FLEMING/MASON* RAIN      48  47  97 N13G21    29.49R
DANVILLE*      CLOUDY    46  46 100 N18G28    29.50R
LEXINGTON      LGT RAIN  48  45  89 N18G28    29.50R
FRANKFORT      CLOUDY    51  45  79 N14G25    29.51R
LOUISVILLE     CLOUDY    50  44  80 NW22G31   29.59R
LEBANON*       CLOUDY    50  48  93 NW17G23   29.53R FOG
GLASGOW*       CLOUDY    47  46  95 NW10G21   29.58R FOG
BOWLING GREEN  CLOUDY    47  42  83 NW10G23   29.64R
$$

KYZ091>093-OHZ055-061-077-WVZ005-015-034-035-042-231700
...SOUTHERN OHIO/WEST VIRGINIA...

CITY           SKY/WX    TMP DP  RH WIND       PRES   REMARKS
COVINGTON      LGT RAIN  46  44  93 N18       29.54R FOG
COLUMBUS       LGT RAIN  51  47  86 N13       29.52R FOG
DAYTON         LGT RAIN  43  42  97 N15       29.58R FOG
WILMINGTON     LGT RAIN  46  45  96 N14       29.52R FOG
HUNTINGTON     RAIN      50  47  89 N8        29.41R FOG
CHARLESTON     RAIN      48  45  89 VRB7      29.39R FOG
BECKLEY        RAIN      45  42  89 NE6       29.34R FOG
BLUEFIELD      LGT RAIN  43  41  93 E10       29.32R
LOGAN CO APT*  RAIN      48  48 100 NE5       29.38R
$$

VAZ002-007-008-TNZ017-027-036-066-071-231700
...SOUTHWEST VIRGINIA/EAST TENNESSEE...

CITY           SKY/WX    TMP DP  RH WIND       PRES   REMARKS
WISE*          RAIN      46  46 100 N8        29.37R
JONESVILLE*    LGT RAIN  54  50  87 N6        29.37R
ABINGDON*      LGT RAIN  49  46  89 NE3       29.32R
BRISTOL        LGT RAIN  52  50  93 N8        29.31R
MORRISTOWN*    CLOUDY    54  52  94 NW9       29.34R
SEVIERVILLE*   CLOUDY    48  48 100 W7        29.36R
KNOXVILLE      LGT RAIN  51  49  92 SW5       29.37R
LAFOLLETTE*    PTSUNNY   54  52  94 VRB5      29.42R FOG
OAK RIDGE      CLOUDY    57  49  74 N8        29.39R
CROSSVILLE     CLOUDY    49  46  90 NW18      29.46R FOG
NASHVILLE      CLOUDY    47  41  80 NW15G25   29.64R
$$

...KEY TO REMARKS...
VSB - VISIBILITY IN MILES
WCI - WIND CHILL INDEX
HX  - HEAT INDEX

$$



USA.gov is the U.S. government's official web portal to all federal, state and local government web resources and services.